This is the latest recevied weather packets stored in our database for station/object KI8L. If no packets are shown the sender has not sent any weather packets the latest 10 day(s).
| Time | Temp. | Humidity | Pressure | Rain* | Wind** | Luminosity | Snow |
|---|---|---|---|---|---|---|---|
| 1777981525 | 14.44° C | 87% | 1007.8 hPa | 0 mm | - | 41 W/m² | - |
| 1777981221 | 14.44° C | 87% | 1007.3 hPa | 0 mm | - | 24 W/m² | - |
| 1777980918 | 14.44° C | 87% | 1007.8 hPa | 0 mm | - | 19 W/m² | - |
| 1777980614 | 14.44° C | 88% | 1007.9 hPa | 0 mm | - | 17 W/m² | - |
| 1777980311 | 14.44° C | 86% | 1008 hPa | 0 mm | - | 12 W/m² | - |
| 1777980009 | 14.44° C | 87% | 1008.3 hPa | 0 mm | - | 10 W/m² | - |
| 1777979708 | 14.44° C | 86% | 1008.1 hPa | 0 mm | - | 9 W/m² | - |
| 1777979404 | 14.44° C | 85% | 1008.2 hPa | 0 mm | - | 5 W/m² | - |
| 1777979101 | 15° C | 85% | 1008.3 hPa | 0 mm | - | 4 W/m² | - |
| 1777978798 | 15° C | 85% | 1008.4 hPa | 0 mm | - | 4 W/m² | - |
| 1777978495 | 15.56° C | 84% | 1008.3 hPa | 0 mm | - | 4 W/m² | - |
| 1777978190 | 15.56° C | 81% | 1008.2 hPa | 0 mm | - | 4 W/m² | - |
| 1777977888 | 15.56° C | 80% | 1008.2 hPa | 0 mm | - | 3 W/m² | - |
| 1777977584 | 16.11° C | 79% | 1008.2 hPa | 0 mm | - | 2 W/m² | - |
| 1777977282 | 16.11° C | 74% | 1008 hPa | 0 mm | - | 1 W/m² | - |
| 1777976979 | 16.11° C | 76% | 1008.2 hPa | 0 mm | - | 1 W/m² | - |
| 1777976676 | 16.67° C | 75% | 1008.1 hPa | 0 mm | - | 1 W/m² | - |
| 1777976373 | 16.67° C | 75% | 1008.3 hPa | 0 mm | - | 0 W/m² | - |
| 1777976072 | 16.67° C | 74% | 1008 hPa | 0 mm | - | 0 W/m² | - |
| 1777975768 | 16.67° C | 74% | 1007.9 hPa | 0 mm | - | 0 W/m² | - |
| 1777975466 | 16.67° C | 73% | 1008 hPa | 0 mm | - | 0 W/m² | - |
| 1777975161 | 16.67° C | 74% | 1008 hPa | 0 mm | - | 0 W/m² | - |
| 1777974858 | 16.67° C | 74% | 1007.8 hPa | 0 mm | - | 0 W/m² | - |
| 1777974554 | 16.67° C | 73% | 1008 hPa | 0 mm | - | 0 W/m² | - |
| 1777974252 | 16.67° C | 73% | 1007.9 hPa | 0 mm | - | 0 W/m² | - |
* Rain latest hour (hover to see other rain measurements)
** Current wind speed in m/s (hover to see current wind gust speed)